Regional Weather Roundup
Issued by NWS

Home | Current Version | Previous Version | Graphics & Text | Print | Product List | Glossary Off
Versions: 1 2 3 4 5 6 7 8 9 10 11 12 13 14 15 16 17 18 19 20 21 22 23 24 25 26 27 28 29 30 31 32 33 34 35 36 37 38 39 40 41 42 43 44 45 46 47 48 49 50

000
ASUS43 KTOP 071859
RWRKS

WEATHER ROUNDUP FOR KANSAS
NATIONAL WEATHER SERVICE GOODLAND KS
100 PM CST SUN FEB 07 2016

NOTE:  "FAIR" INDICATES FEW OR NO CLOUDS BELOW 12,000 FEET WITH NO
SIGNIFICANT WEATHER AND/OR OBSTRUCTIONS TO VISIBILITY.

KSZ001>006-013>018-027>032-041>047-072000-
NORTHWEST KANSAS

CITY           SKY/WX    TMP DP  RH WIND       PRES   REMARKS
GOODLAND       SUNNY     36  24  62 NW23      30.30F WCI  24
HAYS           CLOUDY    45  25  45 NW20G25   30.24F
HILL CITY      MOSUNNY   42  26  53 NW17G26   30.25F
RUSSELL        CLOUDY    43  29  57 NW18      30.21F
$$

KSZ061>065-074>080-084>089-072000-
SOUTHWEST KANSAS

CITY           SKY/WX    TMP DP  RH WIND       PRES   REMARKS
DODGE CITY     SUNNY     47  20  34 N22G32    30.26F
ELKHART          N/A     50  19  29 N18         N/A
GARDEN CITY    MOSUNNY   46  23  40 N22G30    30.29F
GREAT BEND     PTSUNNY   48  27  43 NW18G25   30.23F
LIBERAL        SUNNY     54  23  30 N23G30    30.28F
$$

KSZ066>073-081>083-090>101-072000-
SOUTHEAST KANSAS

CITY           SKY/WX    TMP DP  RH WIND       PRES   REMARKS
CHANUTE        CLOUDY    55  21  26 NW14      30.10F
COFFEYVILLE    MOSUNNY   53  27  36 NW13      30.12F
HUTCHINSON     SUNNY     56  20  24 NW18G29   30.18F
MEDICINE LODGE   N/A     54  25  32 N16G28    30.19F
NEWTON         SUNNY     52  23  32 NW16G26   30.18F
PARSONS        SUNNY     53  28  38 NW9       30.12F
WICHITA INTL   MOSUNNY   55  22  27 NW22G28   30.16F
WICHITA JABRA  SUNNY     54  22  28 NW22G28   30.15F
WINFIELD       SUNNY     56  24  29 N22G31    30.17F
$$

KSZ007>012-019>026-033>040-048>060-102>105-072000-
NORTHEAST KANSAS

CITY           SKY/WX    TMP DP  RH WIND       PRES   REMARKS
CONCORDIA      MOSUNNY   47  24  40 NW17G31   30.13F
EMPORIA        CLOUDY    50  22  33 NW20G33   30.11F
LAWRENCE       MOSUNNY   50  21  32 NW24G32   30.07F
MANHATTAN      CLOUDY    51  19  28 NW21G30   30.12F
OLATHE IND     MOSUNNY   49  21  33 NW17G25   30.05F
OLATHE EXE     MOSUNNY   49  20  31 NW16G24   30.04F
SALINA         CLOUDY    51  24  34 NW21G29   30.17F
TOPEKA BILLARD CLOUDY    51  24  34 W16       30.08F
TOPEKA FORBES  CLOUDY    52  25  35 NW22G28   30.08F
$$



USA.gov is the U.S. government's official web portal to all federal, state and local government web resources and services.